Weather in Abidjan

Côte d'Ivoire     5°21′13″N   4°00′51″W
temp.,
°C
wind,
m/s
gust,
m/s
humid.,
%
clouds,
%
prec.,
mm/h
press.,
hPa
HPBL,
m
22 april, thu
thu2200:00+29sw567823 0.0 1010818
03:00+29wsw45766 0.2 1010637
06:00+28wsw347810 0.3 1010738
09:00+29sw447315 0.1 1012875
12:00+29sw657428 0.1 1011731
15:00+30sw76715 0.0 1008637
18:00+29ssw77765 0.0 1008638
21:00+29sw6779100 0.0 1011643
23 april, fri
fri2300:00+28wsw5578100 1.3 1011582
03:00+29wsw5679100 0.1 1009657
06:00+29wsw4580100 0.1 1010709
09:00+28w5576100 2.1 1012590
12:00+30wsw4568100 2.5 1012925
15:00+29sw6772100 0.1 1009570
18:00+29sw7772100 0.1 1009618
21:00+29sw6774100 0.0 1010677
24 april, sat
sat2400:00+29sw677637 0.0 1010813
03:00+29sw6776100 0.0 1008826
06:00+29sw4576100 0.0 1009678
09:00+29ssw2275100 2.8 1011304
12:00+25ese7794100 25.3 1010339
15:00+26sw8878100 19.3 1007265
18:00+27wnw2373100 19.3 1009437
21:00+26ene1175100 0.0 1011272
25 april, sun
sun2500:00+27wsw137475 0.0 1011533
03:00+27w4579100 0.0 1009640
06:00+26nw338498 0.0 1009271
09:00+27nw227396 0.0 1011297
12:00+28ssw3373100 0.0 1011405
15:00+29s4574100 0.0 1009470
18:00+29ssw4575100 0.0 1009724
21:00+29ssw6779100 0.0 1010749
26 april, mon
mon2600:00+29ssw677897 0.0 1010739
03:00+28sw567896 0.0 1009720
06:00+28sw457993 0.2 1010471
09:00+29ssw447535 0.3 1012678
12:00+29sw447432 1.9 1011695
15:00+29sw557470 0.8 1009733
18:00+29sw557416 0.9 1009658
21:00+29sw66765 0.2 1010694